Regional Weather Roundup
Issued by NWS

Home | Current Version | Previous Version | Text Only | Print | Product List | Glossary Off
Versions: 1 2 3 4 5 6 7 8 9 10 11 12 13 14 15 16 17 18 19 20 21 22 23 24 25 26 27

000
ASUS45 KCYS 271710
RWRWY

WYOMING REGIONAL WEATHER ROUNDUP
NATIONAL WEATHER SERVICE CHEYENNE WY
1100 AM MDT FRI MAY 27 2016

NOTE:  "FAIR" INDICATES FEW OR NO CLOUDS BELOW 12,000 FEET
WITH NO SIGNIFICANT WEATHER AND/OR OBSTRUCTIONS TO VISIBILITY.

WYZ001-271800-
YELLOWSTONE NATIONAL PARK

CITY           SKY/WX    TMP DP  RH WIND       PRES   REMARKS
LK YELLOWSTONE   N/A     43  38  82 VRB5      30.05F
W YELLOWSTONE  NOT AVBL

$$
WYZ002>013-054>058-071-098>099-271800-
NORTHERN WYOMING

CITY           SKY/WX    TMP DP  RH WIND       PRES   REMARKS
JACKSON        MOSUNNY   54  39  58 S8        29.98F
CODY           FAIR      63  36  36 W13       29.89F
GREYBULL       FAIR      62  45  53 VRB5      29.89F
WORLAND        FAIR      61  43  51 VRB3      29.89F
SHERIDAN       FAIR      62  43  49 CALM      29.89S
BUFFALO        FAIR      61  41  47 N8        29.91F
GILLETTE       PTSUNNY   59  43  55 W10       29.89F
HULETT         CLOUDY    59  43  55 W3        29.90S
NEWCASTLE      FAIR      61  34  36 NW15G24   29.88F

$$
WYZ014>020-022>026-101>103-271800-
CENTRAL WYOMING

CITY           SKY/WX    TMP DP  RH WIND       PRES   REMARKS
BIG PINEY      FAIR      56  36  47 SE8       30.01F
PINEDALE       FAIR      52  34  50 NW3       30.03S
DUBOIS         FAIR      54  27  35 W9G21     29.96F
LANDER         FAIR      59  38  45 CALM      29.92F
RIVERTON       FAIR      59  38  45 VRB3      29.94F
CASPER         FAIR      60  37  42 SW6       29.92F
DOUGLAS          N/A    N/A N/A N/A MISG      29.91F

$$
WYZ021-027>030-104>119-271800-
SOUTHERN WYOMING

CITY           SKY/WX    TMP DP  RH WIND       PRES   REMARKS
EVANSTON       TSTM      44  32  62 N7        30.04F
KEMMERER         N/A     55  32  41 W9G18     30.03S
FORT BRIDGER   MOSUNNY   57  34  41 NW13      30.05F
ROCK SPRINGS   FAIR      53  40  61 W9        30.01F
DIXON          FAIR      56  40  55 SW6       30.01F
RAWLINS        CLOUDY    53  32  44 NW9       29.99F
SARATOGA       FAIR      54  34  47 W5        30.00F
LARAMIE        FAIR      51  32  48 N15G21    29.97S
CHEYENNE       PTSUNNY   54  36  50 N17G23    29.92S
TORRINGTON     FAIR      62  42  47 N10G16    29.87F
PINE BLUFFS    PTSUNNY   55  45  67 N16       29.90S

$$




USA.gov is the U.S. government's official web portal to all federal, state and local government web resources and services.